Weather History for Montpelier, VT

Change the Weather History Date:

Friday, October 12, 2012

  Actual Average Record
Temperature  
Mean Temperature 39 °F 47 °F  
Max Temperature 50 °F 58 °F 82 °F (1949)
Min Temperature 27 °F 36 °F 19 °F (1956)
Degree Days  
Heating Degree Days 26 18  
Month to date heating degree days 185 193  
Since 1 July heating degree days 508 548  
Cooling Degree Days 0 0  
Month to date cooling degree days 0 0  
Year to date cooling degree days 291 263  
Moisture  
Dew Point 30 °F    
Average Humidity 72    
Maximum Humidity 93    
Minimum Humidity 50    
Precipitation  
Precipitation 0.03 in 0.12 in 0.69 in (1975)
Month to date precipitation 1.19 1.42  
Year to date precipitation 27.10 29.34  
Sea Level Pressure  
Sea Level Pressure 30.16 in    
Wind  
Wind Speed 9 mph (WNW)    
Max Wind Speed 24 mph    
Max Gust Speed 37 mph    
Visibility 10 miles    
Events Rain , Snow    
T = Trace of Precipitation, MM = Missing Value Source: NWS Daily Summary

Daily Weather History Graph

Daily Weather History Graph

Search for Another Location

Airport:

Trip Planner

Search our weather history database for the weather conditions in past years. The results will help you decide how hot, cold, wet, or windy it might be!

Date:

Astronomy

Oct. 12, 2012 Rise Set
Actual Time 7:01 AM EDT 6:10 PM EDT
Civil Twilight 6:32 AM EDT 6:39 PM EDT
Nautical Twilight 5:59 AM EDT 7:13 PM EDT
Astronomical Twilight 5:25 AM EDT 7:46 PM EDT
Moon 3:35 AM EDT (10/12) 4:23 PM EDT (10/12)
Length of Visible Light 12h 06m
Length of Day
11h 08m
Waning Crescent, 11% of the Moon is Illuminated
Oct 12
Waning Crescent
Oct 15
New
Oct 21
First Quarter
Oct 29
Full
Nov 6
Last Quarter

Hourly Weather History & Observations

Time (EDT) Temp. Windchill Dew Point Humidity Pressure Visibility Wind Dir Wind Speed Gust Speed Precip Events Conditions
12:51 AM 45.0 °F 41.2 °F 32.0 °F 60% 30.02 in 10.0 mi Variable 6.9 mph - N/A   Mostly Cloudy
1:51 AM 48.9 °F - 30.9 °F 50% 29.99 in 10.0 mi SW 16.1 mph 24.2 mph N/A   Overcast
2:51 AM 48.9 °F - 32.0 °F 52% 29.96 in 10.0 mi WSW 12.7 mph 36.8 mph N/A   Overcast
3:51 AM 48.9 °F - 33.1 °F 54% 29.95 in 10.0 mi WSW 12.7 mph 29.9 mph N/A   Overcast
4:51 AM 46.9 °F - 36.0 °F 66% 29.98 in 10.0 mi West 10.4 mph 20.7 mph 0.00 in Rain Light Rain
5:19 AM 42.8 °F 37.0 °F 39.2 °F 87% 29.99 in 10.0 mi NNW 10.4 mph 18.4 mph 0.00 in Rain Light Rain
5:51 AM 41.0 °F 37.1 °F 39.2 °F 93% 30.00 in 10.0 mi West 5.8 mph - N/A Rain Light Rain
6:51 AM 39.9 °F 34.5 °F 37.0 °F 89% 30.06 in 10.0 mi NNW 8.1 mph - 0.01 in   Overcast
7:10 AM 39.2 °F 35.0 °F 35.6 °F 87% 30.03 in 10.0 mi West 5.8 mph - N/A   Overcast
7:46 AM 39.2 °F 35.0 °F 33.8 °F 81% 30.05 in 10.0 mi West 5.8 mph - N/A   Overcast
7:51 AM 39.0 °F 33.4 °F 33.1 °F 79% 30.08 in 10.0 mi West 8.1 mph - N/A   Overcast
8:32 AM 39.2 °F 32.0 °F 33.8 °F 81% 30.07 in 10.0 mi WNW 11.5 mph 16.1 mph 0.00 in   Overcast
9:51 AM 39.2 °F 32.5 °F 32.0 °F 75% 30.11 in 10.0 mi NNW 10.4 mph 20.7 mph N/A   Overcast
10:51 AM 39.2 °F 32.0 °F 30.2 °F 70% 30.12 in 10.0 mi NNW 11.5 mph 19.6 mph N/A   Mostly Cloudy
11:51 AM 39.9 °F 34.5 °F 30.9 °F 70% 30.17 in 10.0 mi NW 8.1 mph 17.3 mph 0.00 in Rain Light Rain
12:51 PM 41.0 °F 33.5 °F 28.9 °F 62% 30.18 in 10.0 mi WNW 13.8 mph 21.9 mph 0.00 in   Overcast
1:51 PM 37.9 °F 29.2 °F 30.9 °F 76% 30.20 in 5.0 mi NW 15.0 mph 21.9 mph 0.00 in   Haze
2:06 PM 39.2 °F 30.8 °F 32.0 °F 75% 30.17 in 9.0 mi NW 15.0 mph 19.6 mph 0.00 in   Overcast
2:51 PM 41.0 °F 33.9 °F 30.2 °F 65% 30.19 in 10.0 mi NNW 12.7 mph 19.6 mph N/A   Overcast
3:51 PM 39.2 °F 31.2 °F 26.6 °F 61% 30.21 in 10.0 mi WNW 13.8 mph 19.6 mph N/A   Overcast
4:51 PM 36.0 °F 28.0 °F 26.1 °F 67% 30.28 in 4.0 mi WNW 11.5 mph 33.4 mph 0.00 in Snow Light Snow
5:51 PM 35.1 °F 26.4 °F 21.0 °F 57% 30.31 in 10.0 mi WNW 12.7 mph 23.0 mph 0.00 in   Scattered Clouds
6:51 PM 33.8 °F 29.6 °F 23.0 °F 65% 30.30 in 10.0 mi NW 4.6 mph - N/A   Mostly Cloudy
7:51 PM 33.1 °F 27.7 °F 23.0 °F 66% 30.36 in 10.0 mi WNW 5.8 mph - N/A   Clear
8:51 PM 34.0 °F 28.8 °F 24.1 °F 67% 30.38 in 10.0 mi West 5.8 mph - N/A   Mostly Cloudy
9:51 PM 32.0 °F 26.4 °F 23.0 °F 69% 30.35 in 10.0 mi NW 5.8 mph - N/A   Clear
10:51 PM 28.0 °F 22.8 °F 23.0 °F 81% 30.42 in 10.0 mi South 4.6 mph - N/A   Clear
11:51 PM 32.0 °F - 24.1 °F 73% 30.42 in 10.0 mi Calm Calm - N/A   Scattered Clouds